Location: Lecco
(45.8566°N, 9.3977°E)
Time: 00:44:54
(UTC+02:00)

S-56A Canister/Altair - Pass Details

Date: 26 July 2019
Orbit: 633 x 2499 km, 38.9° (Epoch: 25 August)

Event Time Altitude Azimuth Distance (km) Brightness Sun altitude
Rises 05:03:43 0° 200° (SSW) 4,219 - -8.6°
Exits shadow 05:04:32 - 197° (SSW) 4,021 10.7 -8.5°
Reaches altitude 10° 05:06:52 10° 187° (S) 3,523 10.5 -8.2°
Maximum altitude 05:14:06 26° 136° (SE) 3,036 10.6 -7.2°
Drops below altitude 10° 05:23:31 10° 88° (E) 4,705 12.5 -5.9°
Sets 05:28:32 0° 77° (ENE) 5,940 13.5 -5.1°
